sat.trackr.live / text

‹ back to catalog

STARLINK-30450

NORAD 57913 · 2023-147A

PAYLOAD ACTIVE UNKNOWN

§ Identity

Operator
Country
US
Launch date
2023-09-24
Launch site
AFETR
Launch vehicle
Mass (kg)
RCS (m²)

Purposes: comms

External: N2YO · Heavens-Above · Gunter

§ Orbital elements

Epoch: 2026-05-25T00:15:39.098880Z

Period
94.27 min
Inclination
43.0046°
Eccentricity
0.0001412
Mean motion
15.27580202 rev/d
Perigee alt
482.1 km
Apogee alt
484.0 km
Semi-major
6,861.2 km
B*
4.3010e-5
RAAN
253.9077°
Arg perigee
265.6646°
Mean anomaly
94.4045°
Rev number
14,827

§ Raw data

STARLINK-304501 57913U 23147A   26145.01086920  .00000922  00000+0  43010-4 0  99902 57913  43.0046 253.9077 0001412 265.6646  94.4045 15.27580202148270

JSON: /api/v1/satellites/57913 · /tle

For live sub-satellite position, see the globe view (requires WebGL).

§ Visibility from observer

Set your observer location to see the next 7 days of passes ≥ 10°. The values pass through the URL so the page stays shareable.

No JS? Fill the form by hand. The geolocation button needs JavaScript.